Time,TemperatureF,DewpointF,PressureIn,WindDirection,WindDirectionDegrees,WindSpeedMPH,WindSpeedGustMPH,Humidity,HourlyPrecipIn,Conditions,Clouds,dailyrainin,SoftwareType,DateUTC
2013-03-06 00:04:00,38.3,13.0,30.38,North,5,2.0,33.0,35,0.00,,,0.00,Wunderground v.1.15,2013-03-06 06:04:00,
2013-03-06 00:10:00,38.2,12.9,30.38,North,349,2.0,2.0,35,0.00,,,0.00,Wunderground v.1.15,2013-03-06 06:10:00,
2013-03-06 00:16:00,38.1,12.8,30.38,North,8,2.0,33.0,35,0.00,,,0.00,Wunderground v.1.15,2013-03-06 06:16:00,
2013-03-06 00:22:00,38.1,12.8,30.38,NNW,347,2.0,33.0,35,0.00,,,0.00,Wunderground v.1.15,2013-03-06 06:22:00,
2013-03-06 00:28:00,38.0,13.4,30.38,North,1,2.0,33.0,36,0.00,,,0.00,Wunderground v.1.15,2013-03-06 06:28:00,
2013-03-06 00:34:00,38.1,12.8,30.38,NNE,12,2.0,33.0,35,0.00,,,0.00,Wunderground v.1.15,2013-03-06 06:34:00,
2013-03-06 00:40:00,38.0,12.7,30.38,North,9,2.0,33.0,35,0.00,,,0.00,Wunderground v.1.15,2013-03-06 06:40:00,
2013-03-06 00:46:00,37.9,12.6,30.39,North,11,1.0,33.0,35,0.00,,,0.00,Wunderground v.1.15,2013-03-06 06:46:00,
2013-03-06 00:52:00,37.8,12.6,30.38,North,354,2.0,33.0,35,0.00,,,0.00,Wunderground v.1.15,2013-03-06 06:52:00,
2013-03-06 00:58:00,37.6,13.0,30.38,NNW,337,3.0,33.0,36,0.00,,,0.00,Wunderground v.1.15,2013-03-06 06:58:00,
2013-03-06 01:04:00,37.1,13.2,30.38,North,353,3.0,33.0,37,0.00,,,0.00,Wunderground v.1.15,2013-03-06 07:04:00,
2013-03-06 01:10:00,36.9,13.0,30.39,NNW,345,2.0,33.0,37,0.00,,,0.00,Wunderground v.1.15,2013-03-06 07:10:00,
2013-03-06 01:16:00,36.7,12.8,30.39,NNW,340,2.0,33.0,37,0.00,,,0.00,Wunderground v.1.15,2013-03-06 07:16:00,
2013-03-06 01:22:00,36.2,13.0,30.39,NNW,347,3.0,33.0,38,0.00,,,0.00,Wunderground v.1.15,2013-03-06 07:22:00,
2013-03-06 01:28:00,36.3,13.7,30.39,NNE,15,3.0,33.0,39,0.00,,,0.00,Wunderground v.1.15,2013-03-06 07:28:00,
2013-03-06 01:34:00,36.7,13.4,30.39,NNW,347,2.0,33.0,38,0.00,,,0.00,Wunderground v.1.15,2013-03-06 07:34:00,
2013-03-06 01:40:00,36.5,13.3,30.39,North,350,3.0,33.0,38,0.00,,,0.00,Wunderground v.1.15,2013-03-06 07:40:00,
2013-03-06 01:46:00,36.2,13.6,30.39,North,353,3.0,33.0,39,0.00,,,0.00,Wunderground v.1.15,2013-03-06 07:46:00,
2013-03-06 01:52:00,36.3,13.7,30.40,North,9,2.0,33.0,39,0.00,,,0.00,Wunderground v.1.15,2013-03-06 07:52:00,
2013-03-06 01:58:00,36.7,13.4,30.39,North,5,2.0,33.0,38,0.00,,,0.00,Wunderground v.1.15,2013-03-06 07:58:00,
2013-03-06 02:04:00,36.5,13.9,30.39,NNE,21,3.0,33.0,39,0.00,,,0.00,Wunderground v.1.15,2013-03-06 08:04:00,
2013-03-06 02:10:00,36.6,13.9,30.39,North,1,4.0,33.0,39,0.00,,,0.00,Wunderground v.1.15,2013-03-06 08:10:00,
2013-03-06 02:16:00,36.5,13.9,30.39,North,5,4.0,33.0,39,0.00,,,0.00,Wunderground v.1.15,2013-03-06 08:16:00,
2013-03-06 02:22:00,36.4,13.8,30.39,NNW,348,4.0,5.0,39,0.00,,,0.00,Wunderground v.1.15,2013-03-06 08:22:00,
2013-03-06 02:28:00,36.1,13.5,30.39,NNE,18,4.0,33.0,39,0.00,,,0.00,Wunderground v.1.15,2013-03-06 08:28:00,
2013-03-06 02:34:00,35.9,13.9,30.39,North,353,4.0,33.0,40,0.00,,,0.00,Wunderground v.1.15,2013-03-06 08:34:00,
2013-03-06 02:40:00,35.6,13.6,30.39,NNW,345,2.0,33.0,40,0.00,,,0.00,Wunderground v.1.15,2013-03-06 08:40:00,
2013-03-06 02:46:00,35.2,13.8,30.39,NNW,331,2.0,33.0,41,0.00,,,0.00,Wunderground v.1.15,2013-03-06 08:46:00,
2013-03-06 02:52:00,34.6,13.3,30.39,North,7,2.0,33.0,41,0.00,,,0.00,Wunderground v.1.15,2013-03-06 08:52:00,
2013-03-06 02:58:00,35.0,13.6,30.39,North,354,1.0,33.0,41,0.00,,,0.00,Wunderground v.1.15,2013-03-06 08:58:00,
2013-03-06 03:04:00,35.0,13.6,30.39,NNW,345,2.0,33.0,41,0.00,,,0.00,Wunderground v.1.15,2013-03-06 09:04:00,
2013-03-06 03:10:00,34.8,14.0,30.39,North,6,1.0,33.0,42,0.00,,,0.00,Wunderground v.1.15,2013-03-06 09:10:00,
2013-03-06 03:16:00,35.0,14.2,30.39,North,356,1.0,33.0,42,0.00,,,0.00,Wunderground v.1.15,2013-03-06 09:16:00,
2013-03-06 03:22:00,34.6,13.8,30.39,North,351,2.0,33.0,42,0.00,,,0.00,Wunderground v.1.15,2013-03-06 09:22:00,
2013-03-06 03:28:00,34.4,14.2,30.39,North,356,2.0,33.0,43,0.00,,,0.00,Wunderground v.1.15,2013-03-06 09:28:00,
2013-03-06 03:34:00,34.2,14.0,30.39,North,356,2.0,33.0,43,0.00,,,0.00,Wunderground v.1.15,2013-03-06 09:34:00,
2013-03-06 03:40:00,33.9,14.3,30.39,NNW,346,3.0,33.0,44,0.00,,,0.00,Wunderground v.1.15,2013-03-06 09:40:00,
2013-03-06 03:46:00,33.7,14.1,30.39,North,349,3.0,33.0,44,0.00,,,0.00,Wunderground v.1.15,2013-03-06 09:46:00,
2013-03-06 03:52:00,33.5,14.4,30.39,North,7,3.0,33.0,45,0.00,,,0.00,Wunderground v.1.15,2013-03-06 09:52:00,
2013-03-06 03:58:00,33.7,15.1,30.39,North,9,3.0,33.0,46,0.00,,,0.00,Wunderground v.1.15,2013-03-06 09:58:00,
2013-03-06 04:04:00,34.2,15.0,30.38,NNE,32,3.0,33.0,45,0.00,,,0.00,Wunderground v.1.15,2013-03-06 10:04:00,
2013-03-06 04:10:00,34.5,15.3,30.38,NNE,21,4.0,33.0,45,0.00,,,0.00,Wunderground v.1.15,2013-03-06 10:10:00,
2013-03-06 04:16:00,34.7,15.0,30.38,NNE,19,4.0,33.0,44,0.00,,,0.00,Wunderground v.1.15,2013-03-06 10:16:00,
2013-03-06 04:22:00,34.8,15.1,30.37,NNE,26,5.0,6.0,44,0.00,,,0.00,Wunderground v.1.15,2013-03-06 10:22:00,
2013-03-06 04:28:00,34.7,15.0,30.38,North,354,5.0,33.0,44,0.00,,,0.00,Wunderground v.1.15,2013-03-06 10:28:00,
2013-03-06 04:34:00,34.3,14.6,30.38,North,4,5.0,33.0,44,0.00,,,0.00,Wunderground v.1.15,2013-03-06 10:34:00,
2013-03-06 04:40:00,33.6,14.5,30.38,NNW,346,4.0,4.0,45,0.00,,,0.00,Wunderground v.1.15,2013-03-06 10:40:00,
2013-03-06 04:46:00,33.0,14.4,30.39,North,9,3.0,33.0,46,0.00,,,0.00,Wunderground v.1.15,2013-03-06 10:46:00,
2013-03-06 04:52:00,31.8,13.8,30.39,NW,324,3.0,33.0,47,0.00,,,0.00,Wunderground v.1.15,2013-03-06 10:52:00,
2013-03-06 04:58:00,31.0,13.6,30.40,NNW,338,1.0,33.0,48,0.00,,,0.00,Wunderground v.1.15,2013-03-06 10:58:00,
2013-03-06 05:04:00,31.0,14.0,30.40,North,1,1.0,33.0,49,0.00,,,0.00,Wunderground v.1.15,2013-03-06 11:04:00,
2013-03-06 05:10:00,31.6,14.6,30.40,NE,43,3.0,3.0,49,0.00,,,0.00,Wunderground v.1.15,2013-03-06 11:10:00,
2013-03-06 05:16:00,31.9,14.4,30.41,North,360,2.0,33.0,48,0.00,,,0.00,Wunderground v.1.15,2013-03-06 11:16:00,
2013-03-06 05:22:00,31.9,14.4,30.41,NNE,15,0.0,33.0,48,0.00,,,0.00,Wunderground v.1.15,2013-03-06 11:22:00,
2013-03-06 05:28:00,31.8,14.3,30.42,NNE,13,0.0,33.0,48,0.00,,,0.00,Wunderground v.1.15,2013-03-06 11:28:00,
2013-03-06 05:34:00,31.6,14.1,30.42,NNE,13,0.0,33.0,48,0.00,,,0.00,Wunderground v.1.15,2013-03-06 11:34:00,
2013-03-06 05:40:00,31.0,14.0,30.42,North,9,0.0,33.0,49,0.00,,,0.00,Wunderground v.1.15,2013-03-06 11:40:00,
2013-03-06 05:46:00,30.6,14.6,30.42,NNE,13,1.0,33.0,51,0.00,,,0.00,Wunderground v.1.15,2013-03-06 11:46:00,
2013-03-06 05:52:00,30.2,14.2,30.42,North,356,2.0,33.0,51,0.00,,,0.00,Wunderground v.1.15,2013-03-06 11:52:00,
2013-03-06 05:58:00,30.2,14.7,30.43,North,350,2.0,33.0,52,0.00,,,0.00,Wunderground v.1.15,2013-03-06 11:58:00,
2013-03-06 06:04:00,30.8,15.2,30.43,North,11,1.0,2.0,52,0.00,,,0.00,Wunderground v.1.15,2013-03-06 12:04:00,
2013-03-06 06:10:00,31.0,15.0,30.43,North,8,1.0,1.0,51,0.00,,,0.00,Wunderground v.1.15,2013-03-06 12:10:00,
2013-03-06 06:16:00,31.1,15.1,30.43,NNE,29,1.0,2.0,51,0.00,,,0.00,Wunderground v.1.15,2013-03-06 12:16:00,
2013-03-06 06:22:00,31.4,15.3,30.44,NNE,16,2.0,4.0,51,0.00,,,0.00,Wunderground v.1.15,2013-03-06 12:22:00,
2013-03-06 06:28:00,31.8,15.7,30.44,NNE,19,2.0,4.0,51,0.00,,,0.00,Wunderground v.1.15,2013-03-06 12:28:00,
2013-03-06 06:34:00,32.3,15.7,30.44,NNE,19,2.0,3.0,50,0.00,,,0.00,Wunderground v.1.15,2013-03-06 12:34:00,
2013-03-06 06:40:00,32.8,16.2,30.44,NNE,18,3.0,3.0,50,0.00,,,0.00,Wunderground v.1.15,2013-03-06 12:40:00,
2013-03-06 06:46:00,33.1,16.0,30.44,NNE,12,2.0,3.0,49,0.00,,,0.00,Wunderground v.1.15,2013-03-06 12:46:00,
2013-03-06 06:52:00,33.3,16.2,30.44,NNE,25,2.0,3.0,49,0.00,,,0.00,Wunderground v.1.15,2013-03-06 12:52:00,
2013-03-06 06:58:00,33.6,16.5,30.44,NNW,346,2.0,3.0,49,0.00,,,0.00,Wunderground v.1.15,2013-03-06 12:58:00,
2013-03-06 07:04:00,33.4,16.3,30.45,NNE,20,1.0,3.0,49,0.00,,,0.00,Wunderground v.1.15,2013-03-06 13:04:00,
2013-03-06 07:10:00,33.2,16.1,30.45,North,360,1.0,1.0,49,0.00,,,0.00,Wunderground v.1.15,2013-03-06 13:10:00,
2013-03-06 07:16:00,32.8,16.2,30.46,North,359,0.0,3.0,50,0.00,,,0.00,Wunderground v.1.15,2013-03-06 13:16:00,
2013-03-06 07:22:00,32.8,16.2,30.46,North,9,0.0,3.0,50,0.00,,,0.00,Wunderground v.1.15,2013-03-06 13:22:00,
2013-03-06 07:28:00,33.4,16.7,30.46,NNW,346,1.0,3.0,50,0.00,,,0.00,Wunderground v.1.15,2013-03-06 13:28:00,
2013-03-06 07:34:00,34.3,16.6,30.47,North,1,2.0,3.0,48,0.00,,,0.00,Wunderground v.1.15,2013-03-06 13:34:00,
2013-03-06 07:40:00,35.2,17.0,30.47,North,356,3.0,3.0,47,0.00,,,0.00,Wunderground v.1.15,2013-03-06 13:40:00,
2013-03-06 07:46:00,35.7,16.9,30.48,North,6,3.0,4.0,46,0.00,,,0.00,Wunderground v.1.15,2013-03-06 13:46:00,
2013-03-06 07:52:00,36.3,17.5,30.47,North,356,3.0,4.0,46,0.00,,,0.00,Wunderground v.1.15,2013-03-06 13:52:00,
2013-03-06 07:58:00,36.7,17.8,30.47,North,11,3.0,4.0,46,0.00,,,0.00,Wunderground v.1.15,2013-03-06 13:58:00,
2013-03-06 08:04:00,37.2,18.3,30.47,NNE,24,2.0,3.0,46,0.00,,,0.00,Wunderground v.1.15,2013-03-06 14:04:00,
2013-03-06 08:10:00,37.7,18.2,30.47,NNW,346,3.0,3.0,45,0.00,,,0.00,Wunderground v.1.15,2013-03-06 14:10:00,
2013-03-06 08:16:00,38.2,18.7,30.47,NNE,25,3.0,7.0,45,0.00,,,0.00,Wunderground v.1.15,2013-03-06 14:16:00,
2013-03-06 08:22:00,38.7,18.6,30.47,NE,50,4.0,4.0,44,0.00,,,0.00,Wunderground v.1.15,2013-03-06 14:22:00,
2013-03-06 08:28:00,39.3,18.6,30.48,NNE,21,4.0,5.0,43,0.00,,,0.00,Wunderground v.1.15,2013-03-06 14:28:00,
2013-03-06 08:34:00,39.7,19.0,30.48,North,1,4.0,6.0,43,0.00,,,0.00,Wunderground v.1.15,2013-03-06 14:34:00,
2013-03-06 08:40:00,40.1,19.4,30.48,NNE,18,4.0,4.0,43,0.00,,,0.00,Wunderground v.1.15,2013-03-06 14:40:00,
2013-03-06 08:46:00,40.6,18.7,30.48,NNE,22,5.0,7.0,41,0.00,,,0.00,Wunderground v.1.15,2013-03-06 14:46:00,
2013-03-06 08:52:00,41.0,19.1,30.48,NNE,32,6.0,9.0,41,0.00,,,0.00,Wunderground v.1.15,2013-03-06 14:52:00,
2013-03-06 08:58:00,41.5,18.9,30.49,NNE,27,6.0,9.0,40,0.00,,,0.00,Wunderground v.1.15,2013-03-06 14:58:00,
2013-03-06 09:04:00,42.3,20.2,30.48,NNE,18,4.0,6.0,41,0.00,,,0.00,Wunderground v.1.15,2013-03-06 15:04:00,
2013-03-06 09:10:00,42.7,19.4,30.48,NNE,22,4.0,4.0,39,0.00,,,0.00,Wunderground v.1.15,2013-03-06 15:10:00,
2013-03-06 09:16:00,43.3,20.0,30.49,NE,50,5.0,6.0,39,0.00,,,0.00,Wunderground v.1.15,2013-03-06 15:16:00,
2013-03-06 09:22:00,43.9,19.9,30.48,NE,49,4.0,7.0,38,0.00,,,0.00,Wunderground v.1.15,2013-03-06 15:22:00,
2013-03-06 09:28:00,44.0,19.4,30.49,NNE,20,5.0,8.0,37,0.00,,,0.00,Wunderground v.1.15,2013-03-06 15:28:00,
2013-03-06 09:34:00,44.2,19.5,30.48,NE,38,5.0,6.0,37,0.00,,,0.00,Wunderground v.1.15,2013-03-06 15:34:00,
2013-03-06 09:40:00,44.5,19.8,30.48,North,11,5.0,7.0,37,0.00,,,0.00,Wunderground v.1.15,2013-03-06 15:40:00,
2013-03-06 09:46:00,45.0,19.6,30.48,NE,38,5.0,8.0,36,0.00,,,0.00,Wunderground v.1.15,2013-03-06 15:46:00,
2013-03-06 09:52:00,45.3,19.2,30.48,NNE,20,5.0,5.0,35,0.00,,,0.00,Wunderground v.1.15,2013-03-06 15:52:00,
2013-03-06 09:58:00,45.3,19.2,30.49,NE,47,6.0,11.0,35,0.00,,,0.00,Wunderground v.1.15,2013-03-06 15:58:00,
2013-03-06 10:04:00,45.6,18.8,30.49,NNE,20,7.0,7.0,34,0.00,,,0.00,Wunderground v.1.15,2013-03-06 16:04:00,
2013-03-06 10:10:00,46.1,17.8,30.49,NE,36,7.0,7.0,32,0.00,,,0.00,Wunderground v.1.15,2013-03-06 16:10:00,
2013-03-06 10:16:00,46.5,17.4,30.49,NNE,18,6.0,7.0,31,0.00,,,0.00,Wunderground v.1.15,2013-03-06 16:16:00,
2013-03-06 10:22:00,47.1,18.0,30.49,NE,51,6.0,6.0,31,0.00,,,0.00,Wunderground v.1.15,2013-03-06 16:22:00,
2013-03-06 10:28:00,47.5,16.8,30.48,NNE,20,6.0,10.0,29,0.00,,,0.00,Wunderground v.1.15,2013-03-06 16:28:00,
2013-03-06 10:34:00,47.6,16.1,30.48,NE,55,8.0,12.0,28,0.00,,,0.00,Wunderground v.1.15,2013-03-06 16:34:00,
2013-03-06 10:40:00,48.5,17.6,30.48,NNE,26,7.0,9.0,29,0.00,,,0.00,Wunderground v.1.15,2013-03-06 16:40:00,
2013-03-06 10:46:00,48.3,17.5,30.47,NNE,27,6.0,9.0,29,0.00,,,0.00,Wunderground v.1.15,2013-03-06 16:46:00,
2013-03-06 10:52:00,49.1,17.3,30.48,NNE,27,5.0,6.0,28,0.00,,,0.00,Wunderground v.1.15,2013-03-06 16:52:00,
2013-03-06 10:58:00,49.7,18.7,30.48,NE,56,4.0,7.0,29,0.00,,,0.00,Wunderground v.1.15,2013-03-06 16:58:00,
2013-03-06 11:04:00,49.8,18.0,30.47,NW,318,4.0,4.0,28,0.00,,,0.00,Wunderground v.1.15,2013-03-06 17:04:00,
2013-03-06 11:10:00,50.6,18.6,30.47,NNE,13,4.0,6.0,28,0.00,,,0.00,Wunderground v.1.15,2013-03-06 17:10:00,
2013-03-06 11:16:00,50.9,18.9,30.47,NNE,20,5.0,7.0,28,0.00,,,0.00,Wunderground v.1.15,2013-03-06 17:16:00,
2013-03-06 11:22:00,51.6,19.5,30.47,NNW,347,4.0,5.0,28,0.00,,,0.00,Wunderground v.1.15,2013-03-06 17:22:00,
2013-03-06 11:28:00,51.8,18.8,30.47,North,351,4.0,7.0,27,0.00,,,0.00,Wunderground v.1.15,2013-03-06 17:28:00,
2013-03-06 11:34:00,52.3,16.5,30.46,NNE,29,5.0,6.0,24,0.00,,,0.00,Wunderground v.1.15,2013-03-06 17:34:00,
2013-03-06 11:40:00,52.8,16.9,30.45,NNE,23,5.0,5.0,24,0.00,,,0.00,Wunderground v.1.15,2013-03-06 17:40:00,
2013-03-06 11:46:00,53.4,15.4,30.45,South,172,4.0,7.0,22,0.00,,,0.00,Wunderground v.1.15,2013-03-06 17:46:00,
2013-03-06 11:52:00,54.1,17.1,30.44,NE,43,5.0,6.0,23,0.00,,,0.00,Wunderground v.1.15,2013-03-06 17:52:00,
2013-03-06 11:58:00,54.9,14.5,30.44,ESE,118,5.0,7.0,20,0.00,,,0.00,Wunderground v.1.15,2013-03-06 17:58:00,
2013-03-06 12:04:00,55.0,15.7,30.44,ESE,110,4.0,6.0,21,0.00,,,0.00,Wunderground v.1.15,2013-03-06 18:04:00,
2013-03-06 12:10:00,56.7,14.8,30.43,SE,133,3.0,3.0,19,0.00,,,0.00,Wunderground v.1.15,2013-03-06 18:10:00,
2013-03-06 12:16:00,56.9,15.0,30.43,SE,136,3.0,4.0,19,0.00,,,0.00,Wunderground v.1.15,2013-03-06 18:16:00,
2013-03-06 12:22:00,56.9,15.0,30.42,ENE,77,3.0,4.0,19,0.00,,,0.00,Wunderground v.1.15,2013-03-06 18:22:00,
2013-03-06 12:28:00,57.6,15.6,30.42,ESE,123,3.0,7.0,19,0.00,,,0.00,Wunderground v.1.15,2013-03-06 18:28:00,
2013-03-06 12:34:00,57.7,15.7,30.42,NNE,33,2.0,5.0,19,0.00,,,0.00,Wunderground v.1.15,2013-03-06 18:34:00,
2013-03-06 12:40:00,58.2,14.8,30.41,East,101,3.0,4.0,18,0.00,,,0.00,Wunderground v.1.15,2013-03-06 18:40:00,
2013-03-06 12:46:00,58.0,14.7,30.41,NE,52,3.0,4.0,18,0.00,,,0.00,Wunderground v.1.15,2013-03-06 18:46:00,
2013-03-06 12:52:00,58.4,18.6,30.40,NE,46,3.0,3.0,21,0.00,,,0.00,Wunderground v.1.15,2013-03-06 18:52:00,
2013-03-06 12:58:00,58.8,16.6,30.39,NNE,27,4.0,7.0,19,0.00,,,0.00,Wunderground v.1.15,2013-03-06 18:58:00,
2013-03-06 13:04:00,59.9,18.7,30.38,SSE,150,3.0,5.0,20,0.00,,,0.00,Wunderground v.1.15,2013-03-06 19:04:00,
2013-03-06 13:10:00,60.0,17.6,30.38,ESE,105,3.0,6.0,19,0.00,,,0.00,Wunderground v.1.15,2013-03-06 19:10:00,
2013-03-06 13:16:00,60.3,16.6,30.38,SW,222,3.0,6.0,18,0.00,,,0.00,Wunderground v.1.15,2013-03-06 19:16:00,
2013-03-06 13:22:00,60.3,15.2,30.38,ESE,111,3.0,10.0,17,0.00,,,0.00,Wunderground v.1.15,2013-03-06 19:22:00,
2013-03-06 13:28:00,60.1,15.1,30.37,ESE,115,4.0,10.0,17,0.00,,,0.00,Wunderground v.1.15,2013-03-06 19:28:00,
2013-03-06 13:34:00,59.9,14.9,30.36,SSE,154,4.0,7.0,17,0.00,,,0.00,Wunderground v.1.15,2013-03-06 19:34:00,
2013-03-06 13:40:00,60.2,16.5,30.36,East,92,5.0,5.0,18,0.00,,,0.00,Wunderground v.1.15,2013-03-06 19:40:00,
2013-03-06 13:46:00,60.9,18.3,30.35,ESE,108,4.0,6.0,19,0.00,,,0.00,Wunderground v.1.15,2013-03-06 19:46:00,
2013-03-06 13:52:00,61.3,17.4,30.34,South,184,4.0,6.0,18,0.00,,,0.00,Wunderground v.1.15,2013-03-06 19:52:00,
2013-03-06 13:58:00,61.5,18.8,30.34,ESE,114,4.0,6.0,19,0.00,,,0.00,Wunderground v.1.15,2013-03-06 19:58:00,
2013-03-06 14:04:00,61.2,16.0,30.33,SE,132,4.0,6.0,17,0.00,,,0.00,Wunderground v.1.15,2013-03-06 20:04:00,
2013-03-06 14:10:00,61.8,12.0,30.33,SSE,150,5.0,10.0,14,0.00,,,0.00,Wunderground v.1.15,2013-03-06 20:10:00,
2013-03-06 14:16:00,61.4,11.7,30.32,SSW,193,5.0,10.0,14,0.00,,,0.00,Wunderground v.1.15,2013-03-06 20:16:00,
2013-03-06 14:22:00,61.3,13.2,30.32,SSE,149,5.0,12.0,15,0.00,,,0.00,Wunderground v.1.15,2013-03-06 20:22:00,
2013-03-06 14:28:00,61.3,13.2,30.32,ESE,105,5.0,12.0,15,0.00,,,0.00,Wunderground v.1.15,2013-03-06 20:28:00,
2013-03-06 14:34:00,60.6,11.1,30.32,ESE,120,6.0,9.0,14,0.00,,,0.00,Wunderground v.1.15,2013-03-06 20:34:00,
2013-03-06 14:40:00,60.5,14.0,30.31,SE,138,5.0,5.0,16,0.00,,,0.00,Wunderground v.1.15,2013-03-06 20:40:00,
2013-03-06 14:46:00,60.5,14.0,30.31,East,90,5.0,9.0,16,0.00,,,0.00,Wunderground v.1.15,2013-03-06 20:46:00,
2013-03-06 14:52:00,60.4,15.3,30.31,ESE,108,5.0,5.0,17,0.00,,,0.00,Wunderground v.1.15,2013-03-06 20:52:00,
2013-03-06 14:58:00,60.3,13.9,30.30,ESE,114,5.0,7.0,16,0.00,,,0.00,Wunderground v.1.15,2013-03-06 20:58:00,
2013-03-06 15:04:00,60.1,13.7,30.31,South,181,6.0,10.0,16,0.00,,,0.00,Wunderground v.1.15,2013-03-06 21:04:00,
2013-03-06 15:10:00,60.0,15.0,30.31,SSE,165,6.0,6.0,17,0.00,,,0.00,Wunderground v.1.15,2013-03-06 21:10:00,
2013-03-06 15:16:00,60.2,13.8,30.31,SE,140,4.0,8.0,16,0.00,,,0.00,Wunderground v.1.15,2013-03-06 21:16:00,
2013-03-06 15:22:00,60.6,14.1,30.30,SSE,148,3.0,4.0,16,0.00,,,0.00,Wunderground v.1.15,2013-03-06 21:22:00,
2013-03-06 15:28:00,60.5,15.4,30.30,SE,137,4.0,6.0,17,0.00,,,0.00,Wunderground v.1.15,2013-03-06 21:28:00,
2013-03-06 15:34:00,60.1,13.7,30.30,SE,129,5.0,6.0,16,0.00,,,0.00,Wunderground v.1.15,2013-03-06 21:34:00,
2013-03-06 15:40:00,60.1,15.1,30.29,SE,134,5.0,7.0,17,0.00,,,0.00,Wunderground v.1.15,2013-03-06 21:40:00,
2013-03-06 15:46:00,60.0,13.6,30.30,SE,127,6.0,7.0,16,0.00,,,0.00,Wunderground v.1.15,2013-03-06 21:46:00,
2013-03-06 15:52:00,59.8,14.8,30.30,SE,129,5.0,6.0,17,0.00,,,0.00,Wunderground v.1.15,2013-03-06 21:52:00,
2013-03-06 15:58:00,59.9,16.2,30.29,SE,135,5.0,6.0,18,0.00,,,0.00,Wunderground v.1.15,2013-03-06 21:58:00,
2013-03-06 16:04:00,59.7,14.8,30.29,SSW,197,7.0,9.0,17,0.00,,,0.00,Wunderground v.1.15,2013-03-06 22:04:00,
2013-03-06 16:10:00,59.9,16.2,30.29,SE,131,7.0,7.0,18,0.00,,,0.00,Wunderground v.1.15,2013-03-06 22:10:00,
2013-03-06 16:16:00,60.2,16.5,30.29,SE,141,7.0,11.0,18,0.00,,,0.00,Wunderground v.1.15,2013-03-06 22:16:00,
2013-03-06 16:22:00,60.5,14.0,30.29,SSE,167,8.0,10.0,16,0.00,,,0.00,Wunderground v.1.15,2013-03-06 22:22:00,
2013-03-06 16:28:00,60.6,12.6,30.29,SSE,156,7.0,10.0,15,0.00,,,0.00,Wunderground v.1.15,2013-03-06 22:28:00,
2013-03-06 16:34:00,61.4,13.3,30.29,South,187,6.0,9.0,15,0.00,,,0.00,Wunderground v.1.15,2013-03-06 22:34:00,
2013-03-06 16:40:00,61.4,10.0,30.28,ESE,115,7.0,7.0,13,0.00,,,0.00,Wunderground v.1.15,2013-03-06 22:40:00,
2013-03-06 16:46:00,60.9,12.9,30.28,SSE,152,6.0,7.0,15,0.00,,,0.00,Wunderground v.1.15,2013-03-06 22:46:00,
2013-03-06 16:52:00,60.2,13.8,30.28,SSE,150,6.0,6.0,16,0.00,,,0.00,Wunderground v.1.15,2013-03-06 22:52:00,
2013-03-06 16:58:00,60.0,13.6,30.28,SE,141,6.0,6.0,16,0.00,,,0.00,Wunderground v.1.15,2013-03-06 22:58:00,
2013-03-06 17:04:00,59.7,14.8,30.28,SE,128,5.0,7.0,17,0.00,,,0.00,Wunderground v.1.15,2013-03-06 23:04:00,
2013-03-06 17:10:00,59.2,14.3,30.28,SSE,167,6.0,6.0,17,0.00,,,0.00,Wunderground v.1.15,2013-03-06 23:10:00,
2013-03-06 17:16:00,58.8,16.6,30.28,SSE,150,7.0,8.0,19,0.00,,,0.00,Wunderground v.1.15,2013-03-06 23:16:00,
2013-03-06 17:22:00,58.9,16.7,30.27,SSE,148,7.0,8.0,19,0.00,,,0.00,Wunderground v.1.15,2013-03-06 23:22:00,
2013-03-06 17:28:00,59.4,17.1,30.27,SSE,159,7.0,8.0,19,0.00,,,0.00,Wunderground v.1.15,2013-03-06 23:28:00,
2013-03-06 17:34:00,59.1,15.6,30.27,SE,138,7.0,7.0,18,0.00,,,0.00,Wunderground v.1.15,2013-03-06 23:34:00,
2013-03-06 17:40:00,58.6,16.4,30.28,SSE,148,7.0,7.0,19,0.00,,,0.00,Wunderground v.1.15,2013-03-06 23:40:00,
2013-03-06 17:46:00,58.2,16.1,30.28,SSE,150,6.0,7.0,19,0.00,,,0.00,Wunderground v.1.15,2013-03-06 23:46:00,
2013-03-06 17:52:00,57.6,16.8,30.28,SSE,156,6.0,8.0,20,0.00,,,0.00,Wunderground v.1.15,2013-03-06 23:52:00,
2013-03-06 17:58:00,57.1,16.3,30.28,SSE,156,5.0,8.0,20,0.00,,,0.00,Wunderground v.1.15,2013-03-06 23:58:00,
2013-03-06 18:04:00,56.7,16.0,30.28,SSE,155,6.0,7.0,20,0.00,,,0.00,Wunderground v.1.15,2013-03-07 00:04:00,
2013-03-06 18:10:00,56.2,16.7,30.29,SSE,148,5.0,5.0,21,0.00,,,0.00,Wunderground v.1.15,2013-03-07 00:10:00,
2013-03-06 18:16:00,55.8,16.4,30.28,SSE,158,5.0,5.0,21,0.00,,,0.00,Wunderground v.1.15,2013-03-07 00:16:00,
2013-03-06 18:22:00,55.5,17.2,30.28,SE,134,4.0,6.0,22,0.00,,,0.00,Wunderground v.1.15,2013-03-07 00:22:00,
2013-03-06 18:28:00,55.0,16.8,30.28,ESE,119,5.0,6.0,22,0.00,,,0.00,Wunderground v.1.15,2013-03-07 00:28:00,
2013-03-06 18:34:00,54.7,15.5,30.28,ESE,117,5.0,7.0,21,0.00,,,0.00,Wunderground v.1.15,2013-03-07 00:34:00,
2013-03-06 18:40:00,54.4,15.2,30.28,SSE,162,5.0,5.0,21,0.00,,,0.00,Wunderground v.1.15,2013-03-07 00:40:00,
2013-03-06 18:46:00,54.1,16.0,30.28,SE,139,4.0,5.0,22,0.00,,,0.00,Wunderground v.1.15,2013-03-07 00:46:00,
2013-03-06 18:52:00,53.8,16.8,30.27,SE,145,4.0,4.0,23,0.00,,,0.00,Wunderground v.1.15,2013-03-07 00:52:00,
2013-03-06 18:58:00,53.5,16.6,30.27,SE,145,4.0,6.0,23,0.00,,,0.00,Wunderground v.1.15,2013-03-07 00:58:00,
2013-03-06 19:04:00,53.4,16.5,30.27,SE,141,4.0,8.0,23,0.00,,,0.00,Wunderground v.1.15,2013-03-07 01:04:00,
2013-03-06 19:10:00,53.0,17.1,30.26,SSE,155,4.0,4.0,24,0.00,,,0.00,Wunderground v.1.15,2013-03-07 01:10:00,
2013-03-06 19:16:00,52.9,17.0,30.26,SE,136,5.0,5.0,24,0.00,,,0.00,Wunderground v.1.15,2013-03-07 01:16:00,
2013-03-06 19:22:00,52.9,17.0,30.26,SSE,150,4.0,6.0,24,0.00,,,0.00,Wunderground v.1.15,2013-03-07 01:22:00,
2013-03-06 19:28:00,52.9,17.0,30.25,SSE,166,5.0,9.0,24,0.00,,,0.00,Wunderground v.1.15,2013-03-07 01:28:00,
2013-03-06 19:34:00,52.8,16.9,30.25,SE,124,5.0,6.0,24,0.00,,,0.00,Wunderground v.1.15,2013-03-07 01:34:00,
2013-03-06 19:40:00,52.8,17.9,30.27,SSW,194,6.0,6.0,25,0.00,,,0.00,Wunderground v.1.15,2013-03-07 01:40:00,
2013-03-06 19:46:00,52.4,17.6,30.27,SE,142,5.0,6.0,25,0.00,,,0.00,Wunderground v.1.15,2013-03-07 01:46:00,
2013-03-06 19:52:00,52.1,18.2,30.27,SSE,156,4.0,4.0,26,0.00,,,0.00,Wunderground v.1.15,2013-03-07 01:52:00,
2013-03-06 19:58:00,51.9,18.0,30.27,SE,139,4.0,6.0,26,0.00,,,0.00,Wunderground v.1.15,2013-03-07 01:58:00,
2013-03-06 20:04:00,51.7,17.9,30.27,SSE,148,5.0,8.0,26,0.00,,,0.00,Wunderground v.1.15,2013-03-07 02:04:00,
2013-03-06 20:10:00,51.5,17.7,30.27,SE,138,5.0,5.0,26,0.00,,,0.00,Wunderground v.1.15,2013-03-07 02:10:00,
2013-03-06 20:16:00,51.3,17.5,30.27,SSE,151,4.0,5.0,26,0.00,,,0.00,Wunderground v.1.15,2013-03-07 02:16:00,
2013-03-06 20:22:00,51.2,17.4,30.27,SSE,163,4.0,4.0,26,0.00,,,0.00,Wunderground v.1.15,2013-03-07 02:22:00,
2013-03-06 20:28:00,51.0,17.3,30.27,SSE,155,5.0,6.0,26,0.00,,,0.00,Wunderground v.1.15,2013-03-07 02:28:00,
2013-03-06 20:34:00,50.9,17.2,30.27,SE,142,5.0,5.0,26,0.00,,,0.00,Wunderground v.1.15,2013-03-07 02:34:00,
2013-03-06 20:40:00,50.8,17.1,30.27,SE,145,6.0,6.0,26,0.00,,,0.00,Wunderground v.1.15,2013-03-07 02:40:00,
2013-03-06 20:46:00,50.7,17.0,30.28,South,176,5.0,6.0,26,0.00,,,0.00,Wunderground v.1.15,2013-03-07 02:46:00,
2013-03-06 20:52:00,50.4,17.6,30.28,SE,145,4.0,4.0,27,0.00,,,0.00,Wunderground v.1.15,2013-03-07 02:52:00,
2013-03-06 20:58:00,50.1,17.4,30.29,South,181,4.0,7.0,27,0.00,,,0.00,Wunderground v.1.15,2013-03-07 02:58:00,
2013-03-06 21:04:00,49.4,17.6,30.29,SE,145,4.0,5.0,28,0.00,,,0.00,Wunderground v.1.15,2013-03-07 03:04:00,
2013-03-06 21:10:00,49.2,17.4,30.29,SSE,157,4.0,6.0,28,0.00,,,0.00,Wunderground v.1.15,2013-03-07 03:10:00,
2013-03-06 21:16:00,49.5,17.7,30.29,SSE,162,5.0,8.0,28,0.00,,,0.00,Wunderground v.1.15,2013-03-07 03:16:00,
2013-03-06 21:22:00,49.7,17.9,30.29,SSE,155,5.0,7.0,28,0.00,,,0.00,Wunderground v.1.15,2013-03-07 03:22:00,
2013-03-06 21:28:00,49.9,17.2,30.29,SSE,156,5.0,7.0,27,0.00,,,0.00,Wunderground v.1.15,2013-03-07 03:28:00,
2013-03-06 21:34:00,50.3,17.5,30.28,South,189,5.0,6.0,27,0.00,,,0.00,Wunderground v.1.15,2013-03-07 03:34:00,
2013-03-06 21:40:00,50.1,17.4,30.29,SSE,160,5.0,5.0,27,0.00,,,0.00,Wunderground v.1.15,2013-03-07 03:40:00,
2013-03-06 21:46:00,49.3,17.5,30.29,South,174,5.0,5.0,28,0.00,,,0.00,Wunderground v.1.15,2013-03-07 03:46:00,
2013-03-06 21:52:00,49.1,18.2,30.29,South,172,5.0,5.0,29,0.00,,,0.00,Wunderground v.1.15,2013-03-07 03:52:00,
2013-03-06 21:58:00,48.5,17.6,30.29,SSE,148,4.0,5.0,29,0.00,,,0.00,Wunderground v.1.15,2013-03-07 03:58:00,
2013-03-06 22:04:00,48.6,17.7,30.28,SSE,162,4.0,4.0,29,0.00,,,0.00,Wunderground v.1.15,2013-03-07 04:04:00,
2013-03-06 22:10:00,48.8,17.9,30.29,SSE,168,4.0,4.0,29,0.00,,,0.00,Wunderground v.1.15,2013-03-07 04:10:00,
2013-03-06 22:16:00,48.3,18.3,30.29,SSE,165,4.0,4.0,30,0.00,,,0.00,Wunderground v.1.15,2013-03-07 04:16:00,
2013-03-06 22:22:00,48.1,18.1,30.29,South,176,3.0,5.0,30,0.00,,,0.00,Wunderground v.1.15,2013-03-07 04:22:00,
2013-03-06 22:28:00,48.1,18.8,30.28,SSE,149,3.0,5.0,31,0.00,,,0.00,Wunderground v.1.15,2013-03-07 04:28:00,
2013-03-06 22:34:00,48.9,18.8,30.28,SSE,163,4.0,5.0,30,0.00,,,0.00,Wunderground v.1.15,2013-03-07 04:34:00,
2013-03-06 22:40:00,48.9,18.8,30.29,SSE,159,3.0,3.0,30,0.00,,,0.00,Wunderground v.1.15,2013-03-07 04:40:00,
2013-03-06 22:46:00,48.3,19.0,30.28,SE,145,2.0,3.0,31,0.00,,,0.00,Wunderground v.1.15,2013-03-07 04:46:00,
2013-03-06 22:52:00,47.8,18.6,30.28,SSE,147,3.0,3.0,31,0.00,,,0.00,Wunderground v.1.15,2013-03-07 04:52:00,
2013-03-06 22:58:00,48.3,19.0,30.27,SSE,148,4.0,6.0,31,0.00,,,0.00,Wunderground v.1.15,2013-03-07 04:58:00,
2013-03-06 23:00:00,48.4,19.1,30.27,SSE,165,4.0,6.0,31,0.00,,,0.00,Wunderground v.1.15,2013-03-07 05:00:00,
2013-03-06 23:02:00,48.5,19.2,30.27,SSE,148,4.0,6.0,31,0.00,,,0.00,Wunderground v.1.15,2013-03-07 05:02:00,
2013-03-06 23:04:00,48.5,19.2,30.27,SSE,150,4.0,6.0,31,0.00,,,0.00,Wunderground v.1.15,2013-03-07 05:04:00,
2013-03-06 23:08:00,48.6,19.3,30.27,SSE,155,4.0,6.0,31,0.00,,,0.00,Wunderground v.1.15,2013-03-07 05:08:00,
2013-03-06 23:14:00,48.3,19.0,30.27,SE,143,5.0,5.0,31,0.00,,,0.00,Wunderground v.1.15,2013-03-07 05:14:00,
2013-03-06 23:20:00,47.8,19.3,30.27,SSE,155,4.0,5.0,32,0.00,,,0.00,Wunderground v.1.15,2013-03-07 05:20:00,
2013-03-06 23:26:00,47.4,19.0,30.26,SSE,162,4.0,7.0,32,0.00,,,0.00,Wunderground v.1.15,2013-03-07 05:26:00,
2013-03-06 23:32:00,47.3,19.6,30.26,South,171,5.0,6.0,33,0.00,,,0.00,Wunderground v.1.15,2013-03-07 05:32:00,
2013-03-06 23:38:00,47.3,19.6,30.26,SSE,150,5.0,6.0,33,0.00,,,0.00,Wunderground v.1.15,2013-03-07 05:38:00,
2013-03-06 23:44:00,47.3,19.6,30.26,SSE,162,5.0,6.0,33,0.00,,,0.00,Wunderground v.1.15,2013-03-07 05:44:00,
2013-03-06 23:50:00,47.2,19.5,30.26,SSE,153,5.0,5.0,33,0.00,,,0.00,Wunderground v.1.15,2013-03-07 05:50:00,
2013-03-06 23:56:00,47.5,19.8,30.26,SE,134,4.0,5.0,33,0.00,,,0.00,Wunderground v.1.15,2013-03-07 05:56:00,